Zurück zum Katalog

FENGYUN 1C DEB

AktivSSO
NORAD 31737·DEBRIS·🇨🇳 China

Gestartet May 10, 1999 von Taiyuan Satellite Launch Center

Loading…

Nächste Überflüge (nächste 24 Stunden)

TLE

AktuellSource: Space-Track

Epoche: Sep 14, 2026, 20:43 UTC

1 31737U 99025CEL 26257.86383259  .00001797  00000-0  25998-3 0  9992
2 31737  97.8898 287.7440 0143248 212.6767 324.1094 14.70623847 22567

Verfolge FENGYUN 1C DEB in Echtzeit mit AllMySat

Download on the App Store